Total_Precipitation_Accumulation
0.07 0.09 0.12 0.15 0.17 0.17 0.19 0.23 0.29 0.32 0.34 0.42 0.53 0.62 0.72 0.90 1.11 1.17 1.22 1.35 1.37 1.40 1.54 1.63 1.65 1.57 1.47 1.49 1.64 1.96 1.83 1.45 1.28 1.30 1.15 0.93 0.78 0.79 0.70 0.70 0.77 0.75 0.76
0.06 0.05 0.07 0.10 0.11 0.10 0.12 0.17 0.26 0.35 0.41 0.48 0.62 0.77 0.99 1.11 1.25 1.40 1.39 1.41 1.46 1.49 1.57 1.78 1.88 1.81 1.76 1.82 1.82 2.00 2.11 1.86 1.63 1.54 1.67 1.42 1.14 0.80 0.63 0.65 0.69 0.75 0.81
0.06 0.04 0.05 0.06 0.09 0.08 0.10 0.17 0.31 0.50 0.71 0.82 1.05 1.33 1.58 1.66 1.58 1.57 1.61 1.59 1.63 1.70 1.66 1.77 1.97 1.93 1.87 1.87 2.02 2.24 2.45 2.38 2.15 1.90 1.94 1.64 1.41 1.28 0.80 0.59 0.64 0.72 0.79
0.10 0.08 0.09 0.08 0.10 0.12 0.21 0.36 0.61 0.91 1.16 1.32 1.51 1.72 1.83 1.87 1.80 1.81 1.79 1.77 1.69 1.62 1.61 1.72 1.93 2.06 2.13 2.15 2.22 2.20 2.44 2.60 2.42 2.34 2.04 1.73 1.57 1.60 1.35 0.90 0.66 0.69 0.73
0.19 0.19 0.22 0.23 0.29 0.39 0.58 0.86 1.12 1.37 1.53 1.58 1.68 1.88 2.03 2.19 2.20 2.08 1.93 1.82 1.78 1.70 1.61 1.66 1.73 1.78 1.85 1.96 2.09 2.16 2.32 2.41 2.51 2.50 2.34 2.10 1.89 1.45 1.40 1.40 1.12 0.87 0.67
0.29 0.35 0.45 0.55 0.70 0.82 1.00 1.21 1.35 1.50 1.51 1.52 1.58 1.71 1.90 2.06 2.08 2.09 2.05 1.92 1.78 1.67 1.58 1.53 1.64 1.66 1.66 1.78 1.89 1.98 2.19 2.31 2.41 2.47 2.34 2.16 2.06 1.82 1.55 1.40 1.35 1.22 0.90
0.41 0.57 0.72 0.86 0.98 1.09 1.19 1.22 1.22 1.27 1.30 1.32 1.36 1.44 1.50 1.53 1.59 1.70 1.62 1.49 1.36 1.31 1.30 1.24 1.30 1.43 1.48 1.65 1.72 1.66 1.71 1.86 2.03 2.19 2.21 2.15 2.02 2.00 1.89 1.73 1.57 1.36 1.03
0.68 0.77 0.88 0.97 1.01 1.14 1.20 1.16 1.13 1.12 1.06 1.00 1.05 1.07 1.11 1.17 1.20 1.22 1.17 1.09 1.04 1.00 0.97 0.97 0.98 1.04 1.12 1.33 1.54 1.52 1.54 1.60 1.67 1.76 1.99 2.07 2.00 2.00 1.82 1.68 1.66 1.46 1.21
0.94 1.08 1.08 0.99 0.90 0.94 1.02 1.01 0.97 0.92 0.84 0.79 0.82 0.85 0.92 0.94 0.93 0.91 0.86 0.84 0.78 0.78 0.75 0.78 0.86 0.91 0.91 1.00 1.13 1.32 1.40 1.45 1.52 1.55 1.70 1.77 1.80 1.77 1.65 1.64 1.59 1.49 1.27
1.00 1.24 1.38 1.27 1.00 0.80 0.82 0.79 0.77 0.80 0.79 0.75 0.77 0.77 0.70 0.64 0.66 0.69 0.63 0.62 0.66 0.70 0.70 0.67 0.68 0.74 0.76 0.85 0.95 1.02 1.12 1.19 1.35 1.52 1.64 1.64 1.65 1.67 1.60 1.56 1.60 1.52 1.32
1.17 1.31 1.36 1.23 1.05 0.78 0.69 0.69 0.66 0.70 0.77 0.70 0.72 0.71 0.61 0.49 0.47 0.47 0.45 0.45 0.49 0.55 0.56 0.58 0.64 0.65 0.66 0.68 0.69 0.74 0.79 0.86 0.97 1.03 1.14 1.34 1.53 1.58 1.57 1.59 1.61 1.58 1.44
0.83 0.85 0.96 0.97 0.91 0.78 0.71 0.75 0.80 0.79 0.72 0.65 0.62 0.58 0.51 0.44 0.43 0.41 0.38 0.39 0.44 0.47 0.48 0.54 0.58 0.57 0.62 0.65 0.65 0.64 0.65 0.74 0.83 0.84 0.85 0.95 1.17 1.32 1.42 1.47 1.49 1.53 1.52
0.60 0.53 0.64 0.78 0.73 0.66 0.70 0.77 0.91 0.91 0.82 0.70 0.60 0.56 0.52 0.49 0.47 0.42 0.41 0.41 0.47 0.58 0.61 0.61 0.64 0.61 0.63 0.62 0.63 0.66 0.66 0.69 0.75 0.78 0.80 0.86 0.96 1.10 1.18 1.28 1.37 1.44 1.55
0.47 0.41 0.40 0.42 0.41 0.44 0.47 0.59 0.84 1.03 1.01 0.90 0.77 0.68 0.61 0.54 0.48 0.44 0.43 0.42 0.45 0.51 0.54 0.62 0.70 0.78 0.83 0.81 0.76 0.74 0.72 0.68 0.70 0.77 0.84 0.85 0.86 0.96 1.18 1.30 1.36 1.39 1.48
0.28 0.24 0.20 0.20 0.22 0.27 0.34 0.45 0.72 0.91 0.93 0.92 0.80 0.66 0.55 0.45 0.43 0.46 0.49 0.46 0.41 0.44 0.45 0.52 0.61 0.71 0.80 0.85 0.83 0.69 0.59 0.61 0.66 0.66 0.67 0.76 0.83 0.85 0.99 1.15 1.37 1.38 1.46
0.18 0.18 0.16 0.14 0.11 0.11 0.16 0.27 0.46 0.62 0.68 0.74 0.70 0.54 0.48 0.43 0.39 0.42 0.48 0.49 0.39 0.38 0.39 0.43 0.42 0.44 0.49 0.64 0.63 0.51 0.43 0.50 0.59 0.66 0.69 0.69 0.70 0.72 0.75 0.78 1.02 1.21 1.31
0.22 0.22 0.22 0.19 0.17 0.14 0.14 0.17 0.24 0.33 0.40 0.45 0.45 0.36 0.34 0.41 0.42 0.45 0.44 0.38 0.31 0.34 0.36 0.31 0.27 0.29 0.32 0.37 0.35 0.40 0.43 0.47 0.52 0.60 0.69 0.74 0.71 0.77 0.85 0.81 0.84 0.93 0.99
0.28 0.24 0.20 0.18 0.15 0.12 0.12 0.13 0.15 0.18 0.20 0.20 0.17 0.14 0.21 0.30 0.32 0.30 0.28 0.23 0.23 0.28 0.36 0.31 0.29 0.32 0.28 0.30 0.34 0.37 0.41 0.55 0.61 0.60 0.61 0.72 0.78 0.83 0.98 0.97 1.04 0.97 0.86
0.12 0.08 0.05 0.04 0.03 0.03 0.03 0.03 0.02 0.02 0.02 0.02 0.02 0.04 0.05 0.06 0.06 0.06 0.07 0.11 0.15 0.20 0.18 0.22 0.37 0.37 0.33 0.40 0.38 0.32 0.41 0.54 0.62 0.57 0.60 0.72 0.82 0.95 1.04 1.09 1.12 1.01 0.91
0.01 0.00 0.00 0.00 0.00 0.00 0.00 0.00 0.00 0.00 0.00 0.00 0.00 0.00 0.01 0.01 0.01 0.01 0.01 0.03 0.06 0.09 0.10 0.14 0.27 0.33 0.34 0.34 0.24 0.25 0.38 0.51 0.60 0.61 0.62 0.83 0.84 0.91 0.95 1.01 1.12 1.13 0.99
0.00 0.00 0.00 0.00 0.00 0.00 0.00 0.00 0.00 0.00 0.00 0.00 0.00 0.00 0.01 0.01 0.01 0.02 0.01 0.01 0.01 0.02 0.05 0.10 0.13 0.14 0.15 0.14 0.14 0.20 0.27 0.35 0.48 0.57 0.61 0.58 0.69 0.70 0.80 0.90 0.97 1.17 1.04
0.00 0.00 0.00 0.00 0.00 0.00 0.00 0.00 0.00 0.00 0.00 0.00 0.00 0.00 0.01 0.01 0.01 0.03 0.02 0.01 0.01 0.01 0.03 0.06 0.09 0.08 0.07 0.06 0.07 0.09 0.13 0.19 0.28 0.38 0.49 0.49 0.55 0.59 0.67 0.69 0.85 1.01 0.98
0.00 0.00 0.00 0.00 0.00 0.00 0.00 0.00 0.00 0.00 0.00 0.00 0.01 0.00 0.00 0.01 0.01 0.01 0.01 0.01 0.01 0.01 0.02 0.04 0.07 0.08 0.09 0.07 0.07 0.07 0.09 0.14 0.18 0.22 0.37 0.44 0.49 0.48 0.50 0.62 0.78 0.83 0.89
0.00 0.00 0.00 0.00 0.00 0.00 0.00 0.00 0.00 0.00 0.00 0.00 0.00 0.00 0.00 0.01 0.01 0.01 0.01 0.01 0.01 0.02 0.02 0.03 0.05 0.09 0.11 0.07 0.07 0.09 0.12 0.14 0.16 0.19 0.32 0.44 0.50 0.49 0.48 0.55 0.67 0.73 0.86
0.00 0.00 0.00 0.00 0.00 0.00 0.00 0.00 0.00 0.00 0.00 0.00 0.00 0.00 0.01 0.01 0.01 0.01 0.01 0.01 0.01 0.02 0.02 0.03 0.04 0.04 0.05 0.05 0.07 0.10 0.13 0.15 0.15 0.24 0.42 0.57 0.58 0.57 0.53 0.56 0.65 0.64 0.62
0.00 0.00 0.00 0.00 0.00 0.00 0.00 0.00 0.00 0.00 0.00 0.00 0.00 0.00 0.01 0.01 0.01 0.02 0.02 0.01 0.02 0.02 0.03 0.03 0.03 0.03 0.04 0.06 0.09 0.14 0.18 0.19 0.25 0.42 0.62 0.73 0.79 0.77 0.69 0.64 0.62 0.57 0.55